Temp
66 65 65 64 64 64 64 63 64 64 63 62 62 61 61 62 63 62 61 62 61 61 62 62 62 63 64 62 61 63 62 60 61 61 60 60 60 61 61 60 59 59
65 65 65 65 63 64 64 64 64 64 63 62 62 61 62 62 61 63 62 62 60 60 60 60 61 62 62 61 60 59 58 59 59 63 60 59 59 60 60 59 59 59
64 64 64 63 64 63 64 64 64 64 63 63 63 63 63 62 62 60 60 60 61 61 62 62 62 61 62 60 59 60 61 59 59 58 60 60 59 60 59 60 59 59
63 64 64 64 64 64 63 63 63 63 63 63 63 64 64 63 60 60 62 64 61 60 60 60 61 61 61 60 60 60 60 59 58 58 58 59 59 59 59 59 59 60
64 63 64 64 64 64 63 63 63 63 63 63 63 63 63 60 61 62 61 59 59 59 60 61 60 60 60 60 60 59 58 59 58 58 58 58 59 61 59 60 57 58
63 63 64 65 64 64 63 63 64 63 63 62 62 62 61 61 61 61 60 59 60 60 61 60 61 61 62 60 60 60 61 61 59 59 59 58 59 60 65 60 58 59
63 63 63 64 64 64 63 62 63 63 63 63 62 62 62 61 61 60 60 59 59 60 59 58 60 60 59 59 60 60 60 60 59 60 60 58 58 58 60 59 59 59
62 62 62 63 63 63 63 62 62 62 62 62 62 62 63 62 62 61 60 61 60 59 59 59 60 59 59 61 60 58 59 62 60 59 58 59 59 60 59 61 58 58
63 62 62 62 62 61 62 62 61 60 61 62 61 62 61 61 62 62 62 62 60 60 60 60 60 59 59 59 58 58 60 60 60 60 60 58 59 59 61 59 57 57
63 62 62 62 62 61 62 61 61 60 61 62 61 62 63 61 62 63 62 62 62 62 62 61 60 61 62 62 61 59 59 60 59 58 58 57 59 60 60 59 57 57
61 61 61 61 60 60 60 61 61 61 61 62 62 63 63 61 62 63 62 62 63 63 62 62 62 62 62 61 60 59 60 60 59 59 59 59 58 59 62 59 59 58
60 60 60 60 60 60 59 61 62 62 62 61 62 63 62 61 61 63 63 62 63 63 62 63 64 61 61 62 62 61 60 60 59 58 59 59 59 59 58 58 57 57
59 58 58 58 58 59 60 61 63 63 63 63 61 63 62 60 62 63 62 63 65 62 62 61 61 61 60 60 60 60 60 61 60 59 60 60 59 59 58 57 57 57
58 58 59 58 58 59 60 60 61 62 64 63 62 63 62 62 64 64 62 61 62 60 60 60 59 58 59 58 58 59 61 61 60 59 58 57 58 58 58 57 57 57
58 58 57 58 58 58 59 59 59 58 59 60 61 63 63 63 64 64 63 60 60 60 60 60 60 59 58 57 57 58 59 58 57 57 57 56 56 56 56 57 55 56
58 58 59 58 58 57 57 57 57 57 57 59 60 60 59 58 60 60 60 59 59 58 57 58 58 57 52 50 52 56 57 60 57 56 57 57 56 55 54 55 56 56
57 57 59 59 57 56 56 57 58 57 57 57 57 58 58 59 59 59 58 58 57 56 56 56 57 56 43 40 41 46 57 57 56 56 56 56 56 55 54 54 54 56
58 58 59 58 58 57 58 58 57 56 57 57 56 57 57 57 58 58 58 57 57 56 56 56 56 51 41 41 41 42 50 57 57 56 55 54 55 55 54 55 55 56
59 58 58 58 58 58 57 57 57 56 56 57 56 57 56 57 57 57 57 56 56 56 56 55 56 49 43 40 40 40 43 52 58 56 56 54 55 56 56 56 55 55
59 58 57 57 58 58 57 57 56 56 56 56 55 55 55 55 54 55 55 55 55 55 55 55 54 52 43 41 40 39 39 46 56 57 56 57 56 56 56 56 55 55
58 57 56 57 57 57 56 56 56 55 55 55 54 54 54 53 54 53 54 54 54 54 53 53 56 50 44 41 40 40 39 43 52 55 56 56 56 56 56 56 55 56
58 57 57 56 57 56 57 57 56 55 54 53 52 53 52 52 52 52 53 52 53 53 52 51 53 44 41 41 41 39 39 47 51 53 54 54 55 55 55 56 56 56
57 56 55 55 56 56 56 55 55 54 53 53 54 51 52 52 52 51 53 53 52 51 52 53 54 45 39 40 40 39 42 50 51 53 54 53 53 53 51 50 51 55
56 56 55 55 54 54 54 54 56 55 56 54 53 53 52 54 52 51 51 53 52 52 53 54 54 49 39 40 39 39 44 51 52 53 53 52 52 51 50 49 51 56
55 55 54 54 54 54 53 53 53 54 54 54 53 53 53 52 54 54 52 51 52 53 54 55 53 51 41 40 39 39 43 49 52 53 51 52 52 49 48 48 48 49
55 55 55 54 53 54 54 54 53 53 53 54 54 55 55 54 53 53 52 53 54 53 54 55 54 51 43 38 39 39 40 46 48 51 50 52 51 51 49 46 46 45
MSLP
1015.52 1015.84 1016.24 1016.56 1016.80 1016.92 1017.04 1017.24 1017.40 1017.60 1017.92 1018.12 1018.40 1018.64 1018.80 1018.84 1018.84 1019.00 1019.08 1019.12 1019.16 1019.16 1019.20 1019.24 1019.32 1019.44 1019.52 1019.60 1019.76 1019.92 1020.16 1020.24 1020.24 1020.24 1020.28 1020.28 1020.36 1020.48 1020.72 1020.80 1020.76 1020.72
1015.48 1015.72 1016.04 1016.36 1016.64 1016.76 1016.84 1016.92 1017.16 1017.48 1017.84 1018.04 1018.32 1018.56 1018.72 1018.80 1018.92 1018.96 1019.08 1019.12 1019.16 1019.24 1019.24 1019.32 1019.44 1019.52 1019.68 1019.84 1019.92 1020.12 1020.32 1020.40 1020.48 1020.40 1020.44 1020.48 1020.60 1020.60 1020.72 1020.76 1020.84 1020.84
1015.48 1015.72 1016.00 1016.32 1016.52 1016.68 1016.80 1016.88 1017.16 1017.44 1017.76 1018.00 1018.24 1018.48 1018.68 1018.76 1018.88 1018.92 1019.04 1019.16 1019.24 1019.28 1019.32 1019.36 1019.52 1019.68 1019.80 1019.92 1020.04 1020.20 1020.36 1020.52 1020.68 1020.64 1020.60 1020.68 1020.68 1020.76 1020.80 1020.80 1020.84 1020.84
1015.48 1015.68 1016.00 1016.28 1016.44 1016.68 1016.80 1017.08 1017.36 1017.56 1017.80 1018.08 1018.28 1018.44 1018.56 1018.72 1018.88 1019.00 1019.04 1019.08 1019.20 1019.32 1019.40 1019.52 1019.64 1019.80 1019.92 1020.04 1020.16 1020.36 1020.48 1020.64 1020.80 1020.84 1020.84 1020.88 1020.92 1020.92 1020.92 1020.88 1020.88 1020.92
1015.52 1015.80 1016.04 1016.32 1016.48 1016.68 1016.92 1017.24 1017.52 1017.64 1017.84 1018.08 1018.24 1018.40 1018.56 1018.76 1018.92 1019.04 1019.12 1019.24 1019.32 1019.44 1019.52 1019.64 1019.76 1019.92 1020.04 1020.16 1020.28 1020.48 1020.64 1020.80 1020.92 1020.96 1021.08 1021.12 1021.08 1021.04 1021.12 1021.08 1021.16 1021.24
1015.52 1015.84 1016.16 1016.40 1016.56 1016.80 1017.12 1017.36 1017.52 1017.72 1017.92 1018.16 1018.28 1018.44 1018.60 1018.76 1018.96 1019.12 1019.24 1019.32 1019.40 1019.48 1019.56 1019.68 1019.84 1019.96 1020.04 1020.16 1020.24 1020.40 1020.64 1020.88 1021.04 1021.12 1021.24 1021.24 1021.20 1021.08 1021.12 1021.20 1021.28 1021.40
1015.72 1016.04 1016.36 1016.48 1016.68 1016.84 1017.16 1017.32 1017.48 1017.68 1017.92 1018.08 1018.28 1018.48 1018.60 1018.80 1019.04 1019.20 1019.32 1019.44 1019.56 1019.64 1019.72 1019.84 1019.96 1020.08 1020.16 1020.20 1020.24 1020.40 1020.64 1020.84 1021.00 1021.12 1021.28 1021.40 1021.32 1021.36 1021.28 1021.28 1021.36 1021.44
1015.88 1016.20 1016.48 1016.64 1016.84 1017.08 1017.24 1017.40 1017.60 1017.84 1018.00 1018.12 1018.36 1018.52 1018.56 1018.84 1019.00 1019.12 1019.32 1019.48 1019.64 1019.80 1019.88 1019.92 1019.96 1020.08 1020.12 1020.16 1020.28 1020.44 1020.64 1020.80 1020.96 1021.08 1021.20 1021.24 1021.28 1021.44 1021.40 1021.32 1021.36 1021.44
1016.08 1016.44 1016.64 1016.84 1017.16 1017.40 1017.52 1017.64 1017.84 1018.00 1018.08 1018.28 1018.44 1018.52 1018.60 1018.76 1018.92 1019.04 1019.24 1019.44 1019.64 1019.80 1019.88 1019.96 1020.00 1020.16 1020.20 1020.24 1020.36 1020.52 1020.76 1020.92 1021.00 1021.04 1021.16 1021.28 1021.36 1021.40 1021.32 1021.32 1021.44 1021.52
1016.36 1016.60 1016.84 1017.04 1017.32 1017.52 1017.64 1017.76 1017.92 1018.08 1018.16 1018.28 1018.40 1018.48 1018.64 1018.72 1018.76 1018.92 1019.12 1019.36 1019.60 1019.76 1019.88 1020.00 1020.08 1020.20 1020.24 1020.32 1020.44 1020.60 1020.80 1020.96 1021.04 1021.12 1021.20 1021.28 1021.36 1021.36 1021.40 1021.48 1021.56 1021.60
1016.92 1017.20 1017.44 1017.48 1017.64 1017.72 1017.76 1017.76 1017.84 1018.00 1018.12 1018.24 1018.36 1018.52 1018.52 1018.68 1018.76 1018.76 1019.04 1019.24 1019.48 1019.68 1019.80 1019.92 1020.00 1020.08 1020.20 1020.32 1020.44 1020.56 1020.72 1020.96 1021.08 1021.16 1021.28 1021.36 1021.40 1021.44 1021.48 1021.52 1021.56 1021.60
1017.88 1017.68 1017.60 1017.64 1017.68 1017.72 1017.72 1017.68 1017.76 1017.88 1018.00 1018.12 1018.20 1018.36 1018.44 1018.56 1018.72 1018.76 1018.92 1019.12 1019.28 1019.44 1019.60 1019.76 1019.80 1019.96 1020.12 1020.20 1020.32 1020.44 1020.68 1020.84 1021.00 1021.16 1021.24 1021.28 1021.36 1021.44 1021.52 1021.64 1021.68 1021.72
1017.76 1017.64 1017.72 1017.64 1017.48 1017.48 1017.44 1017.44 1017.48 1017.68 1017.96 1018.16 1018.24 1018.32 1018.44 1018.68 1018.72 1018.76 1018.80 1019.00 1019.04 1019.36 1019.60 1019.72 1019.88 1019.96 1020.08 1020.20 1020.36 1020.56 1020.68 1020.80 1021.08 1021.24 1021.36 1021.48 1021.60 1021.64 1021.76 1021.88 1021.88 1021.84
1017.60 1017.76 1017.92 1017.84 1017.80 1017.64 1017.64 1018.00 1018.28 1018.24 1018.24 1018.24 1018.32 1018.44 1018.52 1018.60 1018.64 1018.68 1018.72 1018.92 1019.44 1019.56 1019.68 1019.72 1019.84 1020.04 1020.20 1020.28 1020.40 1020.52 1020.64 1020.84 1020.88 1020.88 1021.00 1021.24 1021.56 1021.72 1021.76 1021.76 1021.72 1021.68
1018.28 1018.56 1018.84 1018.96 1018.48 1018.16 1018.00 1018.32 1018.44 1018.48 1018.44 1018.40 1018.40 1018.44 1018.36 1018.32 1018.24 1018.36 1018.68 1019.28 1019.44 1019.52 1019.52 1019.60 1019.72 1019.96 1020.08 1020.16 1020.40 1020.72 1020.92 1020.84 1020.84 1020.88 1020.92 1021.12 1021.28 1021.44 1021.64 1021.68 1021.64 1021.60
1018.00 1018.12 1018.40 1018.92 1019.40 1019.28 1019.00 1018.56 1018.60 1018.64 1018.68 1018.68 1018.64 1018.60 1018.60 1018.56 1018.48 1018.56 1018.80 1019.16 1019.36 1019.44 1019.68 1019.76 1019.92 1020.12 1020.28 1020.24 1020.28 1020.40 1020.68 1020.84 1020.92 1020.88 1020.92 1021.08 1021.16 1021.36 1021.68 1021.72 1021.68 1021.64
1018.52 1018.64 1018.60 1018.88 1019.12 1019.36 1019.08 1018.88 1018.72 1018.76 1018.76 1018.76 1018.84 1018.84 1018.84 1018.84 1018.80 1018.92 1019.16 1019.28 1019.28 1019.36 1019.48 1019.68 1019.84 1020.08 1020.28 1020.32 1020.44 1020.56 1020.56 1020.68 1020.84 1021.00 1021.08 1021.12 1021.12 1021.24 1021.40 1021.52 1021.60 1021.60
1018.44 1018.56 1018.72 1019.00 1019.24 1019.36 1019.20 1019.64 1019.52 1019.32 1019.16 1018.96 1018.92 1018.92 1018.96 1018.92 1019.00 1019.08 1019.20 1019.28 1019.28 1019.32 1019.32 1019.44 1019.68 1019.92 1020.28 1020.44 1020.60 1020.60 1020.56 1020.48 1020.56 1020.76 1021.00 1021.00 1021.04 1021.08 1021.20 1021.28 1021.36 1021.48
1018.16 1018.36 1018.64 1018.88 1018.96 1018.96 1018.96 1019.12 1019.32 1019.52 1019.40 1019.24 1019.20 1019.12 1019.04 1019.08 1019.16 1019.20 1019.32 1019.32 1019.32 1019.40 1019.36 1019.36 1019.40 1019.76 1020.20 1020.64 1020.76 1020.80 1020.68 1020.48 1020.40 1020.40 1020.52 1020.68 1020.76 1020.84 1020.96 1021.08 1021.28 1021.48
1018.44 1018.72 1019.12 1019.36 1019.40 1019.44 1019.44 1019.40 1019.68 1019.72 1019.80 1019.28 1019.24 1019.20 1019.24 1019.28 1019.28 1019.32 1019.36 1019.36 1019.36 1019.36 1019.36 1019.36 1019.44 1019.64 1020.36 1020.56 1020.72 1020.84 1020.88 1020.60 1020.40 1020.36 1020.40 1020.48 1020.60 1020.72 1020.80 1020.92 1021.12 1021.32
1019.40 1018.96 1018.88 1019.16 1019.56 1019.64 1019.60 1019.68 1020.12 1020.48 1020.04 1019.28 1019.08 1019.16 1019.28 1019.32 1019.36 1019.44 1019.44 1019.44 1019.44 1019.44 1019.48 1019.52 1019.48 1019.68 1020.16 1020.56 1020.76 1020.80 1020.84 1020.64 1020.40 1020.36 1020.40 1020.40 1020.44 1020.52 1020.56 1020.68 1020.92 1021.08
1019.16 1019.44 1019.64 1019.80 1019.68 1019.72 1019.76 1019.76 1019.76 1019.52 1019.24 1019.16 1019.20 1019.20 1019.24 1019.24 1019.32 1019.36 1019.48 1019.52 1019.48 1019.48 1019.48 1019.48 1019.48 1019.68 1019.92 1020.20 1020.44 1020.56 1020.60 1020.44 1020.40 1020.28 1020.28 1020.32 1020.32 1020.32 1020.36 1020.48 1020.68 1020.88
1019.60 1019.68 1019.72 1019.72 1019.76 1019.88 1020.20 1020.24 1019.68 1019.28 1019.08 1019.16 1019.28 1019.32 1019.28 1019.32 1019.28 1019.32 1019.32 1019.44 1019.48 1019.52 1019.52 1019.52 1019.44 1019.72 1019.96 1020.12 1020.36 1020.64 1020.40 1020.16 1020.16 1020.12 1020.16 1020.24 1020.28 1020.32 1020.40 1020.52 1020.60 1020.76
1019.40 1019.52 1019.64 1019.68 1019.80 1019.92 1019.64 1019.48 1019.48 1019.52 1019.36 1019.12 1019.04 1019.08 1019.08 1019.00 1019.12 1019.12 1019.12 1019.16 1019.32 1019.44 1019.48 1019.44 1019.40 1019.52 1019.80 1019.96 1020.12 1020.16 1020.04 1019.92 1019.96 1020.00 1020.08 1020.24 1020.36 1020.56 1020.60 1020.60 1020.60 1020.56
1019.76 1019.64 1019.76 1019.72 1019.64 1019.72 1019.88 1020.00 1019.80 1019.36 1019.24 1019.40 1019.32 1019.12 1018.92 1018.96 1018.96 1018.92 1018.92 1018.92 1018.96 1019.16 1019.24 1019.32 1019.36 1019.36 1019.60 1019.76 1020.00 1020.20 1020.28 1020.28 1020.04 1020.08 1020.00 1020.16 1020.52 1020.80 1020.92 1020.80 1021.00 1021.16
1020.24 1020.04 1019.84 1019.80 1019.80 1019.64 1019.48 1019.44 1019.52 1019.60 1019.60 1019.36 1019.32 1019.44 1019.36 1019.08 1018.92 1018.92 1018.96 1018.84 1018.80 1019.00 1019.16 1019.12 1019.20 1019.24 1019.44 1019.68 1019.96 1020.24 1020.52 1020.56 1020.32 1020.04 1019.88 1020.28 1020.56 1020.56 1020.88 1021.20 1021.20 1021.40
Wind_Speed
8 8 8 7 7 7 7 7 7 8 7 7 7 6 6 5 6 6 5 5 4 4 5 5 6 7 6 6 6 6 5 5 5 4 5 6 7 6 6 5 4 5
8 8 7 7 6 6 6 6 7 8 8 8 7 6 5 6 5 6 6 5 4 4 4 5 6 6 6 6 5 6 5 4 4 3 5 6 5 7 6 6 5 4
6 6 7 7 7 6 6 5 7 8 8 7 7 7 6 6 6 5 5 5 5 6 6 6 6 6 6 5 5 6 6 5 5 4 5 5 6 7 5 6 5 5
5 6 6 6 7 7 6 6 7 7 7 7 7 6 6 5 5 5 5 6 6 5 5 5 6 5 5 5 6 6 5 5 4 4 4 4 4 5 5 4 5 6
5 5 6 6 6 6 5 7 7 8 8 7 6 6 6 5 6 6 5 4 4 4 5 6 5 5 5 6 5 6 4 5 4 4 4 4 4 5 4 5 4 5
4 4 6 7 6 7 7 6 7 7 7 6 7 5 5 5 6 5 4 5 4 5 5 5 6 6 6 5 6 6 6 6 4 4 4 4 4 4 4 4 5 5
5 5 6 6 6 7 6 6 7 7 7 6 6 5 5 5 4 5 5 4 4 4 4 4 5 5 4 4 5 5 5 5 4 5 4 3 4 4 4 4 5 5
5 4 5 5 6 5 6 6 6 6 5 5 5 5 5 5 5 5 4 5 5 4 3 4 4 4 5 5 5 5 5 4 5 5 4 5 5 5 5 4 4 5
5 5 5 5 6 4 5 6 5 4 4 6 5 4 4 4 5 5 5 5 5 5 4 4 4 4 4 4 4 4 5 5 5 6 6 5 5 5 5 4 4 4
5 5 6 6 6 4 6 5 5 4 4 5 4 4 4 3 5 5 5 5 5 5 5 4 4 5 5 5 4 4 5 5 4 4 4 4 4 4 4 5 4 4
6 4 5 5 5 4 5 5 6 5 4 5 5 4 4 3 3 4 4 4 6 6 5 5 5 5 6 5 4 4 5 4 4 3 2 3 4 4 4 5 4 4
7 6 8 9 7 5 3 5 7 6 5 4 6 7 5 4 4 4 4 5 5 5 5 6 6 4 4 5 6 5 5 5 5 4 3 4 4 4 3 3 3 2
1 3 4 5 5 5 5 5 7 7 5 5 4 5 5 3 4 5 4 5 6 4 3 4 5 5 5 5 4 5 3 5 5 5 5 4 5 6 6 4 4 3
2 3 4 3 2 3 3 2 5 2 2 3 3 5 5 4 6 5 5 4 7 7 5 5 4 5 4 3 3 4 6 6 6 5 5 4 4 4 3 4 3 3
6 8 8 5 3 2 3 3 2 3 3 3 2 0 1 3 6 5 5 10 7 6 6 5 5 4 4 4 4 4 3 4 3 4 5 4 3 3 3 3 3 3
5 7 6 6 5 7 5 2 2 3 3 3 3 3 3 3 5 5 7 9 8 6 5 5 5 3 4 8 7 5 4 5 4 3 4 5 4 3 3 2 3 2
4 4 6 8 7 5 4 3 1 1 2 2 3 4 4 4 5 6 5 5 6 6 6 5 5 5 7 8 8 6 3 5 5 4 3 4 4 4 5 5 3 3
3 2 5 5 4 1 1 5 4 2 1 1 3 4 3 3 5 5 5 4 3 3 4 4 4 8 11 9 8 6 3 4 4 5 5 5 5 5 5 5 5 5
1 2 3 4 2 1 1 2 1 3 2 0 1 1 3 4 4 4 4 4 4 3 3 3 3 8 11 9 7 6 5 5 5 4 6 5 5 5 5 6 5 5
3 4 2 2 3 2 0 2 3 4 7 1 1 2 3 4 4 4 4 4 4 4 4 3 3 1 11 9 8 7 5 4 4 4 4 5 6 6 6 6 6 7
3 2 6 3 1 2 4 4 4 8 8 3 1 3 4 4 4 4 4 4 4 4 4 4 3 1 8 11 9 8 6 2 2 3 4 4 4 5 6 6 5 6
3 2 4 2 2 3 5 9 11 8 2 2 2 2 2 2 3 4 4 4 3 2 2 3 4 3 5 7 9 8 7 4 3 4 4 3 4 4 4 4 4 4
6 5 4 4 3 1 0 5 6 1 3 3 4 3 3 3 4 4 5 5 4 3 4 4 5 3 6 8 9 10 6 3 3 4 4 2 3 3 3 2 3 5
7 7 7 6 5 5 4 2 1 3 4 2 4 5 4 5 4 3 4 5 4 4 5 5 5 5 8 9 8 9 6 5 4 4 2 3 4 4 4 3 2 11
7 7 6 6 6 5 2 3 1 5 3 2 3 2 4 3 4 4 4 3 4 5 8 7 6 5 6 8 8 8 6 3 4 3 3 5 6 4 3 5 5 6
6 7 7 5 5 6 6 6 2 1 2 1 4 4 5 4 4 4 4 6 5 5 6 7 6 5 6 8 8 8 8 4 2 4 4 6 5 8 6 3 5 6
Wind_Direction
129 134 140 147 159 160 160 147 149 140 137 135 140 148 135 141 120 111 114 111 121 115 94 83 83 86 88 84 83 80 80 76 62 50 50 51 46 65 80 91 80 84
133 139 143 148 151 154 153 149 143 134 140 138 136 133 132 125 128 127 127 123 115 105 94 89 91 93 90 89 88 90 81 77 64 41 57 47 48 66 67 67 72 73
130 140 141 147 153 151 152 147 129 135 134 135 130 127 132 134 135 128 128 122 109 110 110 109 99 100 101 97 92 89 91 86 80 66 73 67 63 69 68 71 66 71
138 153 148 150 143 142 139 122 124 125 124 124 132 137 137 141 126 125 122 117 119 117 117 111 116 114 113 108 104 105 107 102 103 88 75 55 63 75 65 63 56 48
146 146 143 146 138 130 120 121 127 128 127 133 127 127 125 117 116 119 123 121 113 117 116 121 116 116 119 119 119 116 113 114 107 97 95 88 77 83 75 74 66 54
137 127 141 138 135 125 122 123 128 126 127 123 134 127 125 123 121 124 125 123 120 116 118 116 122 131 128 125 118 121 123 116 119 109 110 114 100 92 100 92 80 65
132 123 128 127 122 123 124 122 121 125 129 136 122 129 126 122 124 130 130 126 124 127 125 125 132 138 132 129 130 133 133 135 141 131 124 111 94 68 62 74 74 73
127 116 120 112 113 117 115 113 112 113 122 116 123 138 131 132 139 141 133 135 136 139 130 130 133 124 122 120 117 116 120 133 124 110 106 109 100 102 92 93 85 74
105 95 97 100 100 94 93 93 93 87 107 115 122 132 133 135 148 148 146 148 140 147 142 145 141 118 120 109 110 105 108 120 128 127 130 128 120 124 125 109 85 85
101 96 104 117 111 107 99 101 100 104 114 118 123 135 134 128 147 148 145 145 143 148 154 158 136 122 127 132 138 121 112 116 118 126 140 138 142 141 126 115 123 98
87 74 68 68 76 76 100 115 123 122 124 125 134 145 173 123 166 145 139 141 144 152 154 149 148 136 136 149 145 143 132 127 133 129 98 102 131 140 133 136 137 149
36 66 82 87 91 84 112 145 147 149 154 157 156 166 186 157 163 164 152 160 159 158 156 154 156 139 138 155 159 145 144 142 145 135 113 97 103 102 99 100 95 115
150 86 95 114 119 117 121 156 165 156 162 179 172 169 182 164 177 165 180 153 173 118 120 119 114 120 122 109 87 74 114 124 103 83 76 70 68 71 72 64 73 83
194 77 71 92 84 107 102 28 33 41 167 207 165 173 181 171 182 173 182 123 85 103 112 118 115 114 117 105 99 108 93 98 120 132 121 117 102 92 106 114 138 153
52 53 30 3 4 25 80 71 58 25 26 37 53 214 157 174 171 160 141 102 111 115 131 128 122 127 132 124 101 82 90 110 120 143 133 113 114 135 133 140 153 181
106 104 103 84 46 350 348 39 52 55 44 47 63 65 67 61 85 83 105 126 129 133 114 125 129 125 117 113 107 116 119 136 145 168 151 143 155 141 107 132 167 162
52 69 95 103 111 135 240 291 59 65 87 82 76 69 63 56 74 88 96 114 127 137 143 142 148 133 127 94 81 69 102 135 151 170 165 163 172 158 164 179 198 178
99 101 99 95 98 176 356 21 359 9 355 69 81 95 98 79 89 107 113 120 122 131 154 165 152 152 131 119 111 121 157 151 157 158 163 168 176 174 175 183 194 188
69 82 77 93 108 157 143 183 300 303 265 205 72 108 93 94 102 101 117 131 143 153 195 210 202 163 139 127 127 137 190 175 170 174 163 174 183 185 182 190 185 172
133 104 67 85 154 144 92 346 333 305 292 261 111 89 109 118 106 113 122 140 160 173 187 220 226 133 125 136 138 147 194 207 186 185 188 183 189 184 185 184 173 170
3 99 139 147 184 178 174 189 203 231 226 245 117 139 142 151 153 143 158 158 177 177 173 207 235 247 138 147 151 159 180 189 227 232 198 190 187 185 182 182 169 173
74 42 4 337 235 215 214 198 198 195 202 156 117 117 111 134 162 148 162 178 197 183 181 234 254 194 145 149 156 161 163 187 204 218 213 191 188 187 182 172 170 162
83 80 80 73 43 101 171 314 335 321 171 164 142 158 184 179 193 181 180 178 191 201 196 235 259 194 176 170 167 168 167 189 197 204 212 183 148 123 97 92 153 167
25 42 40 32 49 43 13 4 235 251 283 215 168 195 208 214 196 190 197 184 175 195 200 220 244 212 191 184 177 178 184 194 198 190 186 131 118 105 103 81 73 146
4 20 35 28 11 15 94 130 229 283 284 310 299 247 216 218 198 195 227 232 210 194 198 212 238 241 203 193 184 185 198 223 209 152 153 153 136 118 100 104 83 78
358 4 2 15 11 349 346 347 352 90 76 249 264 272 283 261 222 200 216 240 233 217 215 211 211 218 202 195 184 190 206 223 207 152 130 149 161 142 126 106 107 105